When you browse on this site, cookies collect data to enhance your experience and personalize the content and advertising you see.
Visit our Privacy Policy to learn more. By continuing to use the site, you agree to this use of cookies and data.
  • In Switzerland
  • List of Countries
  • For 7 days
  • Water Temperature
  • Satellite Maps
  • Weather Map
  • Weather Widgets
  • user-avatar
    Login

    Hourly Weather Pleskachivka

    Today, 26 April, Friday

    Time Temperature Precipitation Wind Pressure Humidity
    00:00 +13°C° 0 mm 2 mps 754 mmHg 55%
    01:00 +13°C° 0 mm 2 mps 754 mmHg 54%
    02:00 +12°C° 0 mm 1 mps 754 mmHg 53%
    03:00 +12°C° 0 mm 1 mps 754 mmHg 54%
    04:00 +11°C° 0 mm 1 mps 754 mmHg 55%
    05:00 +11°C° 0 mm 1 mps 754 mmHg 57%
    06:00 +12°C° 0 mm 2 mps 754 mmHg 54%
    07:00 +14°C° 0 mm 2 mps 754 mmHg 51%
    08:00 +15°C° 0 mm 2 mps 754 mmHg 48%
    09:00 +17°C° 0 mm 2 mps 754 mmHg 43%
    10:00 +18°C° 0 mm 3 mps 754 mmHg 38%
    11:00 +20°C° 0 mm 3 mps 753 mmHg 33%
    12:00 +21°C° 0 mm 3 mps 753 mmHg 32%
    13:00 +21°C° 0 mm 3 mps 753 mmHg 30%
    14:00 +22°C° 0 mm 4 mps 753 mmHg 29%
    15:00 +21°C° 0 mm 3 mps 752 mmHg 32%
    16:00 +21°C° 0 mm 3 mps 752 mmHg 35%
    17:00 +21°C° 0 mm 3 mps 752 mmHg 39%
    18:00 +19°C° 0 mm 3 mps 752 mmHg 44%
    19:00 +17°C° 0 mm 2 mps 752 mmHg 50%
    20:00 +16°C° 0 mm 2 mps 751 mmHg 56%
    21:00 +15°C° 0 mm 2 mps 751 mmHg 59%
    22:00 +13°C° 0 mm 3 mps 751 mmHg 62%
    23:00 +12°C° 0 mm 3 mps 751 mmHg 65%

    Tomorrow, 27 April, Saturday

    Time Temperature Precipitation Wind Pressure Humidity
    00:00 +12°C° 0 mm 3 mps 751 mmHg 64%
    01:00 +11°C° 0 mm 3 mps 751 mmHg 63%
    02:00 +11°C° 0 mm 3 mps 751 mmHg 62%
    03:00 +10°C° 0 mm 3 mps 751 mmHg 62%
    04:00 +10°C° 0 mm 3 mps 750 mmHg 62%
    05:00 +9°C° 0 mm 3 mps 750 mmHg 63%
    06:00 +11°C° 0 mm 3 mps 750 mmHg 59%
    07:00 +13°C° 0 mm 4 mps 750 mmHg 55%
    08:00 +14°C° 0 mm 4 mps 750 mmHg 52%
    09:00 +17°C° 0 mm 4 mps 750 mmHg 48%
    10:00 +19°C° 0 mm 5 mps 750 mmHg 45%
    11:00 +20°C° 0 mm 5 mps 749 mmHg 42%
    12:00 +21°C° 0 mm 5 mps 749 mmHg 42%
    13:00 +22°C° 0 mm 5 mps 749 mmHg 41%
    14:00 +22°C° 0 mm 5 mps 748 mmHg 41%
    15:00 +22°C° 0 mm 5 mps 748 mmHg 44%
    16:00 +21°C° 0 mm 4 mps 747 mmHg 47%
    17:00 +21°C° 0 mm 4 mps 747 mmHg 50%
    18:00 +20°C° 0 mm 4 mps 747 mmHg 52%
    19:00 +19°C° 0 mm 4 mps 747 mmHg 55%
    20:00 +17°C° 0 mm 4 mps 747 mmHg 57%
    21:00 +16°C° 0 mm 5 mps 747 mmHg 58%
    22:00 +15°C° 0 mm 5 mps 746 mmHg 59%
    23:00 +14°C° 0 mm 5 mps 746 mmHg 59%

    Day after tomorrow, 28 April, Sunday

    Time Temperature Precipitation Wind Pressure Humidity
    00:00 +13°C° 0 mm 5 mps 746 mmHg 60%
    01:00 +12°C° 0 mm 4 mps 746 mmHg 60%
    02:00 +11°C° 0 mm 4 mps 746 mmHg 61%
    03:00 +11°C° 0 mm 4 mps 746 mmHg 61%
    04:00 +11°C° 0 mm 4 mps 746 mmHg 60%
    05:00 +10°C° 0 mm 4 mps 745 mmHg 60%
    06:00 +12°C° 0 mm 5 mps 745 mmHg 56%
    07:00 +13°C° 0 mm 5 mps 745 mmHg 53%
    08:00 +15°C° 0 mm 5 mps 745 mmHg 49%
    09:00 +16°C° 0 mm 5 mps 745 mmHg 44%
    10:00 +19°C° 0 mm 5 mps 745 mmHg 40%
    11:00 +21°C° 0 mm 5 mps 745 mmHg 35%
    12:00 +21°C° 0 mm 5 mps 745 mmHg 34%
    13:00 +22°C° 0 mm 4 mps 745 mmHg 32%
    14:00 +23°C° 0 mm 4 mps 744 mmHg 31%
    15:00 +23°C° 0 mm 4 mps 744 mmHg 33%
    16:00 +22°C° 0 mm 3 mps 744 mmHg 35%
    17:00 +22°C° 0 mm 3 mps 744 mmHg 38%
    18:00 +20°C° 0 mm 3 mps 744 mmHg 43%
    19:00 +18°C° 0 mm 2 mps 744 mmHg 48%
    20:00 +17°C° 0 mm 2 mps 744 mmHg 53%
    21:00 +16°C° 0 mm 3 mps 744 mmHg 56%
    22:00 +14°C° 0 mm 3 mps 744 mmHg 59%
    23:00 +13°C° 0 mm 3 mps 745 mmHg 62%

    29 April, Monday

    Time Temperature Precipitation Wind Pressure Humidity
    00:00 +12°C° 0 mm 3 mps 745 mmHg 63%
    01:00 +13°C° 0 mm 2 mps 744 mmHg 63%
    02:00 +12°C° 0 mm 1 mps 744 mmHg 63%
    03:00 +11°C° 0 mm 1 mps 744 mmHg 64%
    04:00 +11°C° 0 mm 1 mps 744 mmHg 64%
    05:00 +11°C° 0 mm 1 mps 744 mmHg 65%
    06:00 +12°C° 0 mm 1 mps 745 mmHg 59%
    07:00 +14°C° 0 mm 1 mps 745 mmHg 54%
    08:00 +15°C° 0 mm 1 mps 745 mmHg 48%
    09:00 +17°C° 0 mm 2 mps 745 mmHg 45%
    10:00 +18°C° 0 mm 3 mps 745 mmHg 43%
    11:00 +20°C° 0 mm 4 mps 746 mmHg 40%
    12:00 +19°C° 0 mm 5 mps 745 mmHg 45%
    13:00 +19°C° 0 mm 6 mps 745 mmHg 50%
    14:00 +18°C° 0 mm 7 mps 745 mmHg 56%
    15:00 +17°C° 0.1 mm 8 mps 745 mmHg 62%
    16:00 +15°C° 0.1 mm 8 mps 745 mmHg 68%
    17:00 +13°C° 0.1 mm 8 mps 744 mmHg 73%
    18:00 +12°C° 0.6 mm 8 mps 744 mmHg 76%
    19:00 +11°C° 0.6 mm 7 mps 745 mmHg 79%
    20:00 +10°C° 0.6 mm 7 mps 745 mmHg 82%
    21:00 +10°C° 1.2 mm 7 mps 744 mmHg 84%
    22:00 +9°C° 1.2 mm 7 mps 744 mmHg 86%
    23:00 +9°C° 1.2 mm 6 mps 744 mmHg 88%

    30 April, Tuesday

    Time Temperature Precipitation Wind Pressure Humidity
    00:00 +9°C° 0.1 mm 6 mps 744 mmHg 89%
    01:00 +9°C° 0.1 mm 6 mps 744 mmHg 90%
    02:00 +8°C° 0.1 mm 6 mps 743 mmHg 91%
    03:00 +9°C° 0 mm 5 mps 743 mmHg 91%
    04:00 +10°C° 0 mm 4 mps 743 mmHg 92%
    05:00 +10°C° 0 mm 4 mps 743 mmHg 92%
    06:00 +10°C° 0 mm 4 mps 743 mmHg 90%
    07:00 +11°C° 0 mm 4 mps 742 mmHg 89%
    08:00 +11°C° 0 mm 3 mps 742 mmHg 88%
    09:00 +12°C° 0 mm 4 mps 742 mmHg 87%
    10:00 +12°C° 0 mm 4 mps 742 mmHg 85%
    11:00 +12°C° 0 mm 4 mps 742 mmHg 84%
    12:00 +13°C° 0.1 mm 4 mps 741 mmHg 81%
    13:00 +14°C° 0.1 mm 4 mps 741 mmHg 78%
    14:00 +15°C° 0.1 mm 4 mps 741 mmHg 75%
    15:00 +14°C° 0.1 mm 4 mps 740 mmHg 77%
    16:00 +13°C° 0.1 mm 5 mps 740 mmHg 80%
    17:00 +13°C° 0.1 mm 5 mps 740 mmHg 82%
    18:00 +12°C° 0.1 mm 5 mps 740 mmHg 85%
    19:00 +11°C° 0.1 mm 4 mps 740 mmHg 89%
    20:00 +10°C° 0.1 mm 4 mps 740 mmHg 92%
    21:00 +8°C° 0 mm 4 mps 740 mmHg 91%
    22:00 +8°C° 0 mm 4 mps 740 mmHg 90%
    23:00 +8°C° 0 mm 4 mps 740 mmHg 89%

    1 May, Wednesday

    Time Temperature Precipitation Wind Pressure Humidity
    00:00 +8°C° 0 mm 4 mps 740 mmHg 89%
    01:00 +7°C° 0 mm 4 mps 739 mmHg 90%
    02:00 +7°C° 0 mm 4 mps 739 mmHg 90%
    03:00 +7°C° 0 mm 4 mps 739 mmHg 90%
    04:00 +6°C° 0 mm 4 mps 739 mmHg 90%
    05:00 +6°C° 0 mm 4 mps 739 mmHg 90%
    06:00 +6°C° 0.1 mm 4 mps 739 mmHg 90%
    07:00 +6°C° 0.1 mm 4 mps 739 mmHg 89%
    08:00 +6°C° 0.1 mm 4 mps 740 mmHg 88%
    09:00 +6°C° 0.1 mm 5 mps 740 mmHg 86%
    10:00 +7°C° 0.1 mm 5 mps 740 mmHg 84%
    11:00 +7°C° 0.1 mm 6 mps 740 mmHg 82%
    12:00 +7°C° 0 mm 6 mps 740 mmHg 78%
    13:00 +8°C° 0 mm 6 mps 740 mmHg 75%
    14:00 +9°C° 0 mm 6 mps 740 mmHg 71%
    15:00 +9°C° 0 mm 6 mps 741 mmHg 67%
    16:00 +10°C° 0 mm 6 mps 741 mmHg 63%
    17:00 +11°C° 0 mm 6 mps 741 mmHg 58%
    18:00 +9°C° 0 mm 5 mps 742 mmHg 62%
    19:00 +8°C° 0 mm 5 mps 742 mmHg 65%
    20:00 +7°C° 0 mm 4 mps 742 mmHg 69%
    21:00 +7°C° 0 mm 4 mps 743 mmHg 71%
    22:00 +6°C° 0 mm 4 mps 743 mmHg 74%
    23:00 +5°C° 0 mm 3 mps 743 mmHg 76%
    Show more